[Iaude] MPEC L19: 2024 KC2 [a=1.32,e=0.14,i=9.4,H=24.1]
    mpec at cfa.harvard.edu 
    mpec at cfa.harvard.edu
       
    Sun Jun  2 01:47:39 EDT 2024
    
    
  
M.P.E.C. 2024-L19                                  Issued 2024 June 2, 05:46 UT
     The Minor Planet Electronic Circulars contain information on unusual
         minor planets, routine data on comets and natural satellites,
         and occasional editorial announcements.  They are published
    on behalf of Division F of the International Astronomical Union by the
          Minor Planet Center, Smithsonian Astrophysical Observatory,
                          Cambridge, MA 02138, U.S.A.
			  
             Prepared using the Tamkin Foundation Computer Network
                              MPC at CFA.HARVARD.EDU
            URL https://www.minorplanetcenter.net/    ISSN 1523-6714
                                    2024 KC2                                    
Observations:
     K24K02C* C2024 05 31.45061315 43 14.320-03 41 43.36         21.63wXEL019F51
     K24K02C  C2024 05 31.46290215 43 14.696-03 41 07.47         21.46wXEL019F51
     K24K02C  C2024 05 31.47521915 43 15.079-03 40 31.60         21.42wXEL019F51
     K24K02C  C2024 05 31.48747315 43 15.472-03 39 55.58         21.82wXEL019F51
     K24K02C  C2024 05 31.54794015 43 17.612-03 36 58.97         21.01GVEL019F52
     K24K02C  C2024 05 31.54859215 43 17.656-03 36 57.01         21.08GVEL019F52
     K24K02C 7C2024 06 01.01530715 43 43.753-03 14 52.89         20.7 GVEL019Z84
     K24K02C 7C2024 06 01.02444515 43 44.051-03 14 26.68               VEL019Z84
     K24K02C 7C2024 06 01.03358615 43 44.367-03 14 00.82         20.7 GVEL019Z84
     K24K02C !C2024 06 01.25935 15 43 57.76 -03 03 19.9          20.5 GVEL019673
     K24K02C !C2024 06 01.26507 15 43 57.98 -03 03 04.6                VEL019673
     K24K02C  C2024 06 01.30834515 43 58.793-03 01 02.18         21.0 GVEL019H01
     K24K02C  C2024 06 01.31304015 43 58.952-03 00 49.06         21.2 GVEL019H01
     K24K02C  C2024 06 01.32319615 43 59.290-03 00 20.45         21.2 GVEL019H01
     K24K02C  C2024 06 01.32941315 43 59.501-03 00 03.01         21.3 GVEL019H01
     K24K02C KC2024 06 02.20035215 44 47.209-02 20 03.62         20.66GVEL019I52
     K24K02C KC2024 06 02.20232115 44 47.224-02 19 58.01         21.46GVEL019I52
     K24K02C KC2024 06 02.20489115 44 47.350-02 19 49.87         21.29GVEL019I52
Observer details:
673 Table Mountain Observatory, Wrightwood.  Observer J. Pittichova.  1.0-m
    f/15 reflector + CCD.
F51 Pan-STARRS 1, Haleakala.  Observers J. Herman, T. Lowe, P. Minguez, A.
    Schultz, I. Smith.  Measurers K. Chambers, T. de Boer, J. Fairlamb, H.
    Gao, M. Huber, C.-C. Lin, E. Magnier, Y. Ramanjooloo, R. Wainscoat, R.
    Weryk.  1.8-m Ritchey-Chretien + CCD.
F52 Pan-STARRS 2, Haleakala.  Observers J. Herman, T. Lowe, P. Minguez, A.
    Schultz, I. Smith.  Measurers K. Chambers, T. de Boer, J. Fairlamb, H.
    Gao, M. Huber, C.-C. Lin, E. Magnier, Y. Ramanjooloo, R. Wainscoat, R.
    Weryk.  1.8-m Ritchey-Chretien + CCD.
H01 Magdalena Ridge Observatory, Socorro.  Observers W. H. Ryan, E. V. Ryan.
    Measurer W. H. Ryan.  2.4-m f/8.9 Ritchey-Chretien + CCD.
I52 Steward Observatory, Mt. Lemmon Station.  Observer K. W. Wierzchos.
    Measurers T. Beuden, V. F. Carvajal, D. Fay, J. B. Fazekas, D. C. Fuls, A.
    R. Gibbs, A. D. Grauer, H. Groeller, J. K. Hogan, R. A. Kowalski, S. M.
    Larson, G. J. Leonard, D. Rankin, R. L. Seaman, F. C. Shelly, K. W.
    Wierzchos.  1.0-m prime focus + CCD.
Z84 Calar Alto-Schmidt.  Observers F. Ocana, R. Kresken, M. Micheli, L.
    Conversi.  Measurers F. Ocana, M. Micheli.  0.8-m f/3 Schmidt + CCD.
Orbital elements:
2024 KC2                                                 Earth MOID = 0.1331 AU
Epoch 2024 Mar. 31.0 TT = JDT 2460400.5                 MPC                     
M 343.20495              (2000.0)            P               Q                  
n   0.65098281     Peri.  342.24076     -0.78633814     +0.60300237             
a   1.3185291      Node   235.60188     -0.54522067     -0.77964200             
e   0.1361909      Incl.    9.37352     -0.29052838     -0.16895709             
P   1.51           H   24.11          G   0.15           U   8                  
Residuals in seconds of arc
240531 F51  0.0   0.2-    240601 Z84  0.0   0.2-    240601 H01  0.0   0.1-
240531 F51  0.0   0.2-    240601 Z84  0.1-  0.0     240601 H01  0.0   0.0
240531 F51  0.0   0.3-    240601 Z84  0.1-  0.2-    240601 H01  0.0   0.1-
240531 F51  0.1-  0.0     240601 673  0.3-  0.5+    240602 I52  0.4+  0.1-
240531 F52  0.0   0.2+    240601 673  0.2+  0.3-    240602 I52  0.4-  0.2+
240531 F52  0.2+  0.3+    240601 H01  0.0   0.0     240602 I52 (0.2+  1.4+)
Ephemeris:
2024 KC2                 a,e,i = 1.32, 0.14, 9                   q = 1.1390
Date    TT    R. A. (2000) Decl.     Delta      r    Elong.  Phase     V
2024 05 03    15 15 00.9 -34 08 03   0.1391  1.1397   160.0    17.6    21.0
...
2024 05 18    15 31 23.8 -17 10 01   0.1352  1.1465   176.9     2.7    20.3
...
2024 05 26    15 38 33.9 -08 34 00   0.1440  1.1528   165.1    13.1    21.0
...
2024 06 01    15 43 43.8 -03 15 02   0.1551  1.1586   157.3    19.7    21.4
2024 06 02    15 44 35.5 -02 28 38   0.1573  1.1597   156.1    20.8    21.4
2024 06 03    15 45 27.4 -01 44 12   0.1595  1.1608   154.9    21.7    21.5
...
2024 06 09    15 50 48.6 +02 01 06   0.1748  1.1679   148.6    26.9    21.9
...
2024 06 17    15 58 39.5 +05 20 44   0.1991  1.1786   141.7    32.3    22.3
...
2024 07 02    16 16 02.6 +07 42 53   0.2535  1.2022   132.4    38.7    23.1
A. U. Tomatic                (C) Copyright 2024 MPC           M.P.E.C. 2024-L19
    
    
More information about the Iaude
mailing list